RH
37 37 37 36 35 33 33 35 37 40 41 43 45 46 47 50 52 52 54 57 61 62 61 61 61 61 62 64 65 67 68 66 65 64 62 61 59 56 55 57 55 52 48 46 44 42 42 41 38 36 33 26 20 18 17 18 17 16 20 26 32 43 53
39 39 38 36 34 33 33 34 36 39 43 45 46 47 49 52 54 55 56 57 59 61 63 65 66 65 65 68 69 70 72 72 71 69 66 65 64 62 61 63 61 56 51 48 46 46 45 43 42 40 38 35 28 22 21 22 19 19 22 25 26 33 45
40 41 40 38 37 36 34 35 36 39 43 47 48 49 50 53 56 57 58 59 60 61 63 66 68 68 68 69 70 71 73 73 72 71 68 66 65 63 64 67 67 62 56 50 47 47 46 44 44 42 41 41 34 28 28 29 26 23 25 30 31 32 38
42 42 42 40 39 39 38 39 39 42 45 47 49 50 50 52 57 60 60 61 61 62 64 66 68 69 71 73 72 70 71 72 70 70 68 67 66 65 65 69 70 66 61 56 51 48 47 46 45 44 43 42 38 36 37 37 35 32 28 31 36 36 36
44 44 44 43 42 40 40 40 41 44 46 48 49 49 51 53 56 59 61 63 64 65 66 66 67 69 71 72 71 69 69 68 67 66 66 65 65 64 66 69 69 66 64 61 56 52 50 48 45 43 43 44 43 42 41 39 37 34 29 30 36 38 37
46 45 44 43 42 40 40 40 42 45 48 50 50 50 52 54 56 58 60 63 65 66 67 67 68 69 70 71 70 69 68 67 65 64 64 64 63 63 66 67 66 63 62 61 59 57 54 51 47 45 45 46 46 43 41 39 37 33 30 31 36 38 38
46 45 43 42 41 40 40 40 43 46 49 51 51 51 53 55 56 57 58 60 63 65 67 68 68 70 71 72 72 71 69 67 65 65 64 65 66 67 68 66 63 62 60 59 58 58 57 55 51 48 46 46 45 43 42 41 38 34 32 34 36 38 39
46 44 42 41 41 40 40 41 43 46 49 51 52 53 55 57 57 58 57 57 58 61 64 66 68 70 71 72 72 71 70 68 68 70 70 70 71 71 69 67 65 63 62 60 58 57 57 57 53 49 47 45 42 41 42 41 39 36 37 38 38 38 39
45 44 42 41 40 40 40 41 42 46 49 52 53 54 55 56 56 57 56 55 55 57 60 64 67 69 70 72 72 71 71 73 75 76 76 76 76 74 71 69 68 67 65 63 61 60 59 57 54 51 50 49 45 43 42 42 40 38 39 41 40 39 39
45 44 42 40 40 41 41 40 42 46 51 53 55 56 57 57 57 57 58 58 58 59 60 62 65 68 71 73 74 73 75 77 79 80 80 79 79 77 74 71 70 70 69 66 65 64 63 61 57 54 52 51 47 43 40 39 39 40 41 42 42 41 40
46 44 41 40 41 41 41 40 42 47 53 55 57 59 59 59 58 59 59 60 61 61 61 63 64 66 68 70 72 74 76 79 81 82 81 81 79 78 76 75 74 73 72 69 67 65 64 62 60 56 52 49 45 43 41 39 40 44 45 45 43 43 42
45 42 40 40 40 40 40 40 43 50 54 56 58 62 61 60 59 59 59 60 61 62 63 65 66 66 67 68 70 72 75 79 83 82 80 80 80 80 79 78 78 75 73 71 69 66 65 62 60 57 53 48 46 46 44 43 44 45 47 47 47 45 44
43 41 40 39 39 40 40 40 45 51 53 54 59 64 63 61 60 60 60 60 61 63 65 67 68 68 70 71 72 73 76 80 82 81 79 80 81 81 81 81 81 79 77 75 73 70 69 66 62 59 55 52 51 50 49 49 50 50 49 49 49 48 46
42 41 40 39 39 39 38 40 47 52 52 55 63 66 64 62 63 62 61 62 63 65 66 68 69 71 72 73 73 74 76 79 80 81 83 84 84 83 84 84 84 83 82 80 77 76 75 73 68 62 57 55 55 55 55 55 56 55 54 52 51 51 51
41 40 39 39 40 39 37 40 49 53 53 58 65 66 64 64 64 63 63 63 64 65 66 69 72 73 74 74 74 75 76 79 82 85 88 89 89 89 89 88 87 86 86 85 82 80 79 78 75 70 66 63 60 58 57 58 58 58 59 57 55 54 56
40 39 39 39 39 39 37 41 51 55 55 60 64 65 65 65 64 63 62 63 66 67 68 71 72 73 74 74 75 77 80 83 85 87 89 91 92 94 94 93 91 91 91 90 86 83 81 80 80 79 76 72 66 61 59 58 57 58 60 61 59 60 62
39 38 38 38 39 39 37 43 54 56 57 62 64 64 65 66 65 64 64 65 68 70 70 71 72 72 72 74 76 79 82 84 85 86 88 91 93 94 95 95 96 95 94 93 90 87 84 81 80 79 78 74 69 64 61 60 58 57 59 60 61 63 66
38 37 38 38 40 39 38 46 56 59 60 64 66 66 67 67 67 67 67 67 68 69 69 70 72 73 73 74 78 81 82 84 86 87 87 89 91 94 95 96 97 97 96 95 93 91 88 84 80 77 75 73 71 66 62 60 59 57 57 58 59 63 66
38 38 39 39 41 41 41 49 58 61 63 67 69 69 68 68 68 68 67 66 66 67 68 68 71 75 77 78 80 82 82 84 86 87 87 88 91 95 96 97 97 98 99 98 95 94 92 88 83 79 77 74 72 68 63 59 57 56 56 56 57 60 63
38 39 39 40 41 42 44 52 59 62 66 70 73 72 70 68 68 67 65 65 65 65 66 69 72 76 78 78 79 79 79 82 86 86 86 89 92 94 96 97 97 97 98 98 95 93 93 90 84 80 78 75 72 70 65 59 56 55 54 54 55 57 59
39 39 39 40 41 42 47 55 61 64 69 74 75 74 72 69 68 66 65 65 65 64 65 69 72 75 78 78 78 78 80 84 87 87 86 89 93 94 95 96 97 98 98 99 97 93 90 88 82 76 75 75 73 70 67 62 58 56 54 53 55 56 58
40 40 39 39 41 43 49 56 62 66 72 77 78 76 73 70 68 66 65 65 65 64 65 68 70 73 77 80 81 81 83 87 89 88 88 91 93 94 95 96 99 100 101 101 100 96 90 87 83 78 74 74 73 71 68 64 61 58 57 56 57 58 59
41 40 40 39 42 46 52 60 66 70 75 80 81 78 73 70 69 66 64 66 67 66 65 67 69 73 77 80 83 83 83 86 89 89 90 91 92 93 96 98 100 101 100 100 99 95 90 87 86 84 79 74 72 71 69 67 64 62 62 61 61 61 61
44 45 43 41 45 52 58 65 71 75 78 81 82 79 73 69 68 67 63 64 66 67 66 67 68 71 74 77 82 84 83 85 89 90 91 92 93 96 98 99 100 100 100 99 96 92 89 88 87 87 84 77 73 71 71 69 67 66 65 65 65 65 64
47 48 46 45 49 56 62 67 74 79 83 84 82 78 73 68 67 66 63 62 63 64 65 65 65 66 68 71 77 81 82 85 88 89 90 92 93 96 99 100 100 100 99 96 92 89 89 88 87 87 86 81 75 71 69 68 67 66 66 67 67 68 66
48 49 48 47 53 60 65 70 76 81 86 87 83 77 73 68 66 65 64 64 64 64 64 64 62 61 59 59 65 72 79 84 87 88 89 90 91 94 96 97 98 98 95 91 88 87 89 89 86 84 84 84 80 76 72 69 67 66 66 66 67 68 68
50 51 49 49 55 63 67 72 78 83 88 90 84 77 72 69 66 64 63 63 63 61 61 59 55 51 48 47 52 61 71 78 84 87 88 88 89 91 93 94 94 92 88 87 86 87 88 89 87 85 84 84 84 82 79 76 73 70 68 66 65 65 65
51 53 51 51 58 65 69 74 80 85 90 92 86 79 73 68 64 61 60 59 58 56 54 51 49 47 46 44 45 52 61 68 76 82 85 86 88 89 89 88 87 85 83 84 86 87 87 88 88 88 86 84 84 83 82 81 79 77 75 72 69 67 65
53 54 53 54 60 67 70 74 80 86 91 93 88 80 75 69 63 60 59 60 60 56 50 48 50 51 49 45 42 46 53 61 66 72 76 79 81 82 81 81 81 81 82 82 84 85 86 86 87 88 89 88 86 84 83 82 81 81 80 78 76 74 73
53 55 55 56 62 68 71 73 79 86 92 95 90 83 77 71 66 63 61 61 62 60 57 57 57 56 51 46 42 43 49 57 63 67 70 74 76 76 77 78 79 80 82 82 83 84 85 85 85 86 87 88 88 87 86 85 84 83 82 82 81 80 80
55 58 59 59 63 69 72 73 78 85 93 96 93 86 80 74 68 66 64 63 63 63 64 65 63 58 53 48 44 43 47 55 64 68 70 73 76 77 78 80 81 81 83 84 84 84 84 85 85 86 86 87 87 88 88 87 87 86 85 83 82 81 80
57 60 62 62 65 71 73 74 77 84 92 96 95 90 83 76 71 68 67 65 64 65 68 68 64 58 55 51 48 47 50 54 61 68 72 75 77 79 80 81 82 82 84 84 84 85 85 85 86 86 86 86 86 87 87 87 88 88 87 85 83 82 80
57 61 64 65 68 73 76 75 76 82 91 97 97 94 88 79 73 70 69 67 66 68 71 70 63 58 57 56 52 51 53 54 58 66 73 76 77 78 80 81 81 82 83 84 84 85 85 86 86 86 85 85 86 86 87 87 87 87 87 86 85 84 82
57 60 65 68 71 75 79 78 76 80 89 97 99 97 91 83 75 71 69 68 68 71 73 70 63 58 59 59 56 54 55 56 58 63 69 74 77 77 78 79 79 79 80 82 83 84 85 85 85 86 86 86 86 86 86 86 85 85 85 85 84 84 83
59 60 65 70 72 76 81 82 79 79 87 96 100 99 95 88 80 73 69 67 69 73 74 71 64 60 60 61 60 57 56 57 59 61 64 70 75 77 77 77 77 77 78 79 80 80 81 82 83 83 85 85 85 85 85 85 84 84 83 82 82 82 81
62 62 65 70 74 77 81 84 82 79 84 94 101 101 98 93 86 79 73 70 71 74 75 70 65 62 61 62 60 57 56 58 60 61 62 67 73 76 78 78 78 77 77 76 77 77 77 78 79 80 81 82 81 81 81 81 80 80 79 78 77 76 75